Showing default

GHOST-5, 59130

Orbit data source: Space-Track

GHOST-5, 59130 is a payload satellite owned by Orbital Sidekick (US) in SSO that was launched on Mon, 04 Mar 2024 UTC via an FALCON 9 launch vehicle from the Air Force Western Test Range (AFWTR). Payloads include a variety of satellites, spacecraft, and rockets equipped with specific instruments for various scientific and technological missions. These include communications satellites like Starlink; space stations such as the ISS; scientific satellites like the Hubble; Earth observation satellites from companies like Planet Labs, Umbra, and HawkEye 360; GPS; miniature CubeSats for education and research; and military/defense satellites.

Loading next visibility...
GHOST-5 details
Identifier
59130, 2024-043AJ
Orbit
SSO
Last TLE update12 hours ago
Origin
Flag of USOrbital Sidekick (US)
ManufacturerAstro Digital
MissionOperational Commercial Imaging
Bus & MotorCORVUS-XL, Unknown motor
Mass85 kg wet, 85 kg dry
Launch date (UTC)
2024-03-04 (11 months ago)
Launch vehicle
FALCON 9
Launch site
Air Force Western Test Range (AFWTR)
Object type
Payload
Rocket body
Debris
Shape & HBRBox + 1 Dish, 2 m
Radar Cross Section0.425 m², Medium (>0.1 m² and < 1m²)

Expand to show TLE details & history

TLE from 12 hours ago
0 GHOST-5
1 59130U 24043AJ  25044.30900873  .00015411  00000-0  57189-3 0  9991
2 59130  97.4958 173.4850 0010460 155.4210 204.7530 15.27629531 52514
Epoch: 2025-02-13T07:24Z
Definitive object data (Epoch: 2025-02-13T07:24:58.354Z)
Latitude0.00003°
Longitude-81.34512°
Altitude492.519 km
Speed7.615 km/s
True Right ascension11h 33m 56s
True Declination0° 00' 00"
Sunlit
Object was in full shadow at TLE epoch
Visualization TLE readout
Latitude-27.52607°
Longitude-76.91325°
Altitude500.431 km
Speed7.609 km/s
Apparent Right ascension11h 14m 34s
Apparent Declination-33° 45' 06"
Sunlit
Object is in full shadow
Visualization observer readout
Local Sidereal Time22:28:13
Azimuth300.028° NW
Elevation-78.88°
Doppler factor1
Orbital elements
Apogee altitude487.034 km
Perigee altitude472.687 km
Semi-major axis6,857.997 km
Eccentricity0.001046
Inclination97.4958°
RAAN173.485°
Arg. of periapsis155.421°
True anomaly204.70287°
Mean anomaly204.753°
Eccentric anomaly204.72793°
Mean motion3.82162 °/min
BSTAR0.00057189
Orbital period94.2 mins
Loading maneuver chart data...
Loading historical data...
Loading historical data...
Loading historical data...
Loading historical data...
Loading historical data...
Loading historical data...
Loading historical data...

GHOST-5 Visibility forecast

Observer location: undefined°, undefined

Span
Click to sort rows by Start time (UTC) header in descending order
Start Az.
Max El. time (UTC)
Max El. Az.
Max El.
End time (UTC)
End Az.
4 mins2025-02-13 20:34:18.320Z52.212° ENE2025-02-13 20:36:18.320Z90.426° ESE18.135°2025-02-13 20:38:18.320Z132.176° SE
4 mins2025-02-13 22:08:18.320Z325.082° NNW2025-02-13 22:10:18.320Z277.055° WNW20.199°2025-02-13 22:12:18.320Z240.528° WSW
5 mins2025-02-14 08:42:18.320Z180.251° SSW2025-02-14 08:44:18.320Z227.606° WSW41.427°2025-02-14 08:47:18.320Z339.531° N
|